1485601200.78,19647,12.0,73830.0,6.29,-25.29,-25.61,0,*71
1485601202.01,19648,12.0,73830.5,6.29,-25.09,-25.29,0,*70
1485601203.21,19649,12.0,73828.8,6.29,-25.13,-25.39,0,*7B
1485601204.47,19650,12.0,73828.0,6.31,-25.23,-25.55,0,*73
1485601205.72,19651,12.0,73830.3,6.31,-25.03,-25.35,0,*76
1485601206.95,19652,12.0,73830.5,6.31,-25.19,-25.35,0,*7E
1485601208.15,19653,12.0,73828.8,6.29,-24.97,-25.23,0,*76
1485601209.34,19654,12.0,73830.0,6.29,-24.93,-25.23,0,*75
1485601210.57,19655,12.0,73830.5,6.31,-25.35,-25.49,0,*7C
1485601211.81,19656,12.0,73832.8,6.31,-25.39,-25.49,0,*73
1485601213.07,19657,12.0,73830.0,6.31,-25.49,-25.71,0,*7E
1485601214.36,19658,12.0,73830.8,6.31,-25.55,-25.71,0,*7C
1485601215.58,19659,12.0,73830.5,6.31,-25.23,-25.39,0,*70
1485601216.81,19660,12.0,73828.0,6.31,-25.09,-25.39,0,*72
1485601218.07,19661,12.0,73828.5,6.35,-25.03,-25.35,0,*71
1485601219.3,19662,12.0,73832.8,6.35,-25.13,-25.35,0,*73
1485601220.53,19663,12.0,73832.5,6.31,-25.09,-25.39,0,*71
1485601221.76,19664,12.0,73828.0,6.31,-25.09,-25.39,0,*76
1485601223.01,19665,12.0,73830.5,6.35,-25.49,-25.81,0,*74
1485601224.24,19666,12.0,73832.5,6.37,-25.45,-25.61,0,*77
1485601225.47,19667,12.0,73830.8,6.35,-25.35,-25.49,0,*79
1485601226.72,19668,12.0,73828.0,6.35,-25.19,-25.45,0,*74
1485601227.98,19669,12.0,73830.3,6.35,-25.35,-25.75,0,*78
1485601229.24,19670,12.0,73830.3,6.35,-25.49,-25.75,0,*7B
1485601230.5,19671,12.0,73832.0,6.35,-25.49,-25.75,0,*7A
1485601231.75,19672,12.0,73830.0,6.35,-25.45,-25.61,0,*70
1485601233.01,19673,12.0,73830.8,6.31,-25.55,-25.87,0,*7C
1485601234.29,19674,12.0,73826.3,6.35,-25.29,-25.45,0,*7A
1485601235.52,19675,12.0,73830.5,6.31,-25.23,-25.49,0,*79
1485601236.78,19676,12.0,73828.0,6.35,-25.29,-25.49,0,*74
1485601238.02,19677,12.0,73832.8,6.35,-25.19,-25.45,0,*7A
1485601239.28,19678,12.0,73828.3,6.35,-25.45,-25.65,0,*7E
1485601240.51,19679,12.0,73834.5,6.31,-25.23,-25.49,0,*75
1485601241.74,19680,12.0,73832.0,6.35,-25.13,-25.35,0,*7F
1485601242.93,19681,12.0,73830.3,6.37,-25.19,-25.35,0,*76
1485601244.13,19682,12.0,73828.3,6.37,-25.35,-25.61,0,*7A
1485601245.35,19683,12.0,73830.3,6.37,-25.19,-25.45,0,*73
1485601246.55,19684,12.0,73828.5,6.37,-25.19,-25.35,0,*73
1485601247.75,19685,12.0,73830.0,6.37,-25.35,-25.61,0,*7D
1485601248.97,19686,12.0,73834.0,6.37,-25.45,-25.65,0,*7D
1485601250.17,19687,12.0,73834.5,6.37,-25.19,-25.61,0,*71
1485601251.4,19688,12.0,73830.8,6.37,-25.45,-25.61,0,*77
1485601252.61,19689,12.0,73830.8,6.37,-25.49,-25.61,0,*7A
1485601253.83,19690,12.0,73834.5,6.37,-25.49,-25.81,0,*7C
1485601255.09,19691,12.0,73828.3,6.39,-25.55,-25.87,0,*78
1485601256.31,19692,12.0,73828.8,6.37,-25.61,-25.81,0,*74
1485601257.56,19693,12.0,73828.5,6.37,-25.45,-25.71,0,*7C
1485601258.76,19694,12.0,73830.0,6.37,-25.35,-25.65,0,*79
1485601259.99,19695,12.0,73830.8,6.37,-25.45,-25.65,0,*7F
1485601261.23,19696,12.0,73828.5,6.37,-25.29,-25.45,0,*74
1485601262.43,19697,12.0,73830.8,6.37,-25.61,-25.91,0,*70
1485601263.67,19698,12.0,73830.8,6.37,-25.29,-25.45,0,*7A
1485601264.9,19699,12.0,73828.5,6.39,-25.39,-25.61,0,*72
1485601266.16,19700,12.0,73830.5,6.39,-25.29,-25.61,0,*72
1485601267.39,19701,12.0,73832.3,6.39,-25.23,-25.39,0,*74
1485601268.67,19702,12.0,73832.3,6.39,-25.45,-25.71,0,*7B
1485601269.95,19703,12.0,73828.0,6.39,-25.45,-25.75,0,*7E
1485601271.15,19704,12.0,73830.5,6.41,-25.35,-25.65,0,*70
1485601272.42,19705,12.0,73834.5,6.39,-25.29,-25.45,0,*71
1485601273.67,19706,12.0,73828.3,6.39,-25.09,-25.29,0,*7A
1485601274.93,19707,12.0,73828.0,6.39,-25.09,-25.29,0,*7B
1485601276.13,19708,12.0,73832.5,6.41,-25.23,-25.39,0,*72
1485601277.33,19709,12.0,73834.3,6.41,-25.35,-25.65,0,*7D
1485601278.53,19710,12.0,73828.3,6.41,-25.65,-25.87,0,*7C
1485601279.74,19711,12.0,73830.8,6.41,-25.39,-25.65,0,*78
1485601280.97,19712,12.0,73830.0,6.41,-25.35,-25.55,0,*74
1485601282.17,19713,12.0,73826.8,6.41,-25.23,-25.39,0,*78
1485601283.4,19714,12.0,73830.0,6.41,-25.39,-25.71,0,*78
1485601284.61,19715,12.0,73828.3,6.41,-25.39,-25.49,0,*72
1485601285.84,19716,12.0,73830.5,6.43,-25.39,-25.65,0,*7D
1485601287.05,19717,12.0,73832.8,6.41,-25.49,-25.65,0,*79
1485601288.25,19718,12.0,73830.3,6.41,-25.65,-25.87,0,*74
1485601289.48,19719,12.0,73830.8,6.41,-25.55,-25.87,0,*76
1485601290.74,19720,12.0,73830.0,6.43,-25.49,-25.71,0,*7A
1485601292.0,19721,12.0,73828.3,6.43,-25.39,-25.55,0,*7A
1485601293.23,19722,12.0,73830.5,6.41,-25.39,-25.71,0,*7D
1485601294.46,19723,11.94,73824.3,6.41,-25.35,-25.55,0,*76
1485601295.66,19724,12.0,73826.3,6.41,-25.19,-25.39,0,*75
1485601296.89,19725,12.0,73830.5,6.43,-25.23,-25.49,0,*78
1485601298.09,19726,12.0,73826.5,6.41,-25.39,-25.65,0,*7C
1485601299.3,19727,12.0,73830.5,6.41,-25.35,-25.49,0,*7F
1485601300.52,19728,12.0,73828.5,6.43,-25.35,-25.39,0,*75
1485601301.72,19729,12.0,73826.0,6.41,-25.35,-25.39,0,*76
1485601302.95,19730,12.0,73828.8,6.43,-25.35,-25.39,0,*7C
1485601304.2,19731,12.0,73828.8,6.43,-25.23,-25.55,0,*70
1485601305.46,19732,12.0,73832.0,6.43,-25.39,-25.55,0,*78
1485601306.69,19733,12.0,73830.8,6.43,-25.39,-25.65,0,*7A
1485601307.92,19734,12.0,73830.5,6.45,-25.13,-25.29,0,*7B
1485601309.14,19735,12.0,73830.0,6.43,-25.39,-25.65,0,*7C
1485601310.4,19736,12.0,73832.5,6.43,-25.35,-25.55,0,*70
1485601311.6,19737,12.0,73828.3,6.45,-25.13,-25.35,0,*75
1485601312.82,19738,12.0,73830.8,6.45,-24.97,-25.29,0,*7A
1485601314.04,19739,12.0,73832.8,6.45,-25.19,-25.45,0,*76
1485601315.28,19740,12.0,73832.3,6.45,-25.29,-25.45,0,*7B
1485601316.48,19741,12.0,73828.0,6.45,-24.97,-25.19,0,*77
1485601317.72,19742,12.0,73830.3,6.47,-25.03,-25.19,0,*7A
1485601318.95,19743,12.0,73828.8,6.45,-24.87,-25.19,0,*74
1485601320.14,19744,12.0,73828.3,6.45,-25.13,-25.35,0,*71
1485601321.4,19745,12.0,73826.3,6.47,-25.13,-25.29,0,*7F
1485601322.68,19746,12.0,73828.3,6.47,-24.83,-25.03,0,*7C
1485601323.91,19747,12.0,73830.0,6.45,-24.83,-25.13,0,*7E
1485601325.15,19748,12.0,73830.0,6.47,-25.03,-25.19,0,*70
1485601326.38,19749,12.0,73830.0,6.47,-25.13,-25.35,0,*7E
1485601327.61,19750,12.0,73828.5,6.47,-25.49,-25.87,0,*70
1485601328.83,19751,12.0,73830.3,6.47,-25.35,-25.65,0,*76
1485601330.06,19752,12.0,73832.8,6.47,-24.97,-25.35,0,*79
1485601331.31,19753,12.0,73828.5,6.47,-25.13,-25.29,0,*78
1485601332.53,19754,12.0,73828.8,6.49,-25.13,-25.45,0,*7B
1485601333.77,19755,12.0,73828.8,6.49,-25.39,-25.71,0,*75
1485601335.02,19756,12.0,73834.8,6.47,-25.81,-26.03,0,*7D
1485601336.24,19757,12.0,73830.5,6.49,-25.23,-25.45,0,*7B
1485601337.44,19758,12.0,73828.3,6.49,-24.97,-25.23,0,*7A
1485601338.68,19759,12.0,73828.8,6.47,-25.19,-25.45,0,*72
1485601339.93,19760,12.0,73828.0,6.47,-25.03,-25.19,0,*7A
1485601341.18,19761,12.0,73826.5,6.49,-25.45,-25.75,0,*7D
1485601342.41,19762,12.0,73828.3,6.51,-25.19,-25.35,0,*7A
1485601343.63,19763,12.0,73830.0,6.51,-24.93,-25.23,0,*7F
1485601344.86,19764,12.0,73828.5,6.49,-25.45,-25.61,0,*7D
1485601346.08,19765,12.0,73824.5,6.51,-25.35,-25.65,0,*76
1485601347.34,19766,12.0,73828.8,6.49,-25.29,-25.55,0,*72
1485601348.6,19767,12.0,73828.0,6.51,-25.23,-25.55,0,*70
1485601349.83,19768,12.0,73826.5,6.51,-25.35,-25.49,0,*75
1485601351.08,19769,12.0,73828.5,6.51,-25.23,-25.55,0,*7E
1485601352.34,19770,12.0,73830.3,6.51,-25.49,-25.75,0,*78
1485601353.57,19771,12.0,73830.5,6.51,-25.23,-25.39,0,*7D
1485601354.82,19772,12.0,73828.8,6.53,-24.87,-25.09,0,*70
1485601356.04,19773,12.0,73828.0,6.51,-24.93,-25.19,0,*77
1485601357.27,19774,12.0,73824.0,6.53,-25.19,-25.39,0,*73
1485601358.49,19775,12.0,73828.8,6.53,-25.23,-25.39,0,*7B
1485601359.74,19776,12.0,73828.5,6.53,-25.23,-25.55,0,*72
1485601360.97,19777,12.0,73830.0,6.51,-25.35,-25.65,0,*75
1485601362.21,19778,12.0,73828.5,6.51,-25.39,-25.65,0,*76
1485601363.43,19779,12.0,73826.5,6.51,-25.65,-25.91,0,*75
1485601364.69,19780,12.0,73830.5,6.53,-25.75,-26.03,0,*78
1485601365.98,19781,12.0,73826.3,6.51,-25.55,-25.71,0,*7F
1485601367.24,19782,12.0,73828.8,6.51,-25.35,-25.55,0,*7C
1485601368.46,19783,12.0,73824.8,6.51,-25.09,-25.19,0,*7A
1485601369.69,19784,12.0,73830.5,6.53,-25.19,-25.49,0,*7B
1485601370.94,19785,12.0,73830.3,6.53,-25.55,-25.87,0,*70
1485601372.2,19786,12.0,73828.0,6.53,-25.75,-26.03,0,*7E
1485601373.46,19787,12.0,73828.0,6.53,-25.49,-25.71,0,*76
1485601374.75,19788,12.0,73828.5,6.53,-25.55,-25.75,0,*70
1485601376.03,19789,12.0,73830.8,6.53,-25.55,-25.75,0,*71
1485601377.29,19790,12.0,73826.3,6.51,-25.71,-25.91,0,*77
1485601378.51,19791,12.0,73828.5,6.51,-25.65,-25.91,0,*73
1485601379.77,19792,12.0,73830.3,6.53,-25.35,-25.55,0,*7F
1485601381.0,19793,12.0,73830.3,6.53,-25.23,-25.49,0,*74
1485601382.22,19794,12.0,73828.5,6.53,-25.23,-25.49,0,*73
1485601383.47,19795,12.0,73826.8,6.57,-25.45,-25.87,0,*74
1485601384.7,19796,12.0,73828.3,6.53,-25.35,-25.49,0,*76
1485601385.95,19797,12.0,73834.3,6.57,-25.19,-25.45,0,*71
1485601387.18,19798,12.0,73826.5,6.53,-25.39,-25.65,0,*7A
1485601388.44,19799,12.0,73824.3,6.57,-25.29,-25.49,0,*70
1485601389.67,19800,12.0,73828.0,6.53,-25.23,-25.49,0,*71
1485601390.92,19801,12.0,73828.3,6.53,-25.39,-25.71,0,*70
1485601392.18,19802,12.0,73834.0,6.53,-25.49,-25.71,0,*74
1485601393.43,19803,12.0,73824.3,6.53,-25.55,-25.87,0,*71
1485601394.69,19804,12.0,73828.3,6.57,-25.71,-25.87,0,*74
1485601395.92,19805,12.0,73826.5,6.57,-25.65,-25.87,0,*70
1485601397.15,19806,12.0,73828.3,6.57,-25.35,-25.65,0,*7A
1485601398.38,19807,12.0,73830.8,6.53,-25.39,-25.65,0,*73
1485601399.65,19808,12.0,73828.0,6.57,-25.45,-25.81,0,*79
1485601400.88,19809,12.0,73828.5,6.57,-25.65,-25.87,0,*7C
1485601402.14,19810,12.0,73828.0,6.57,-25.49,-25.81,0,*7C
1485601403.39,19811,12.0,73830.3,6.53,-25.23,-25.55,0,*7C
1485601404.62,19812,12.0,73830.8,6.57,-25.19,-25.49,0,*7F
1485601405.87,19813,12.0,73826.0,6.57,-25.19,-25.45,0,*72
1485601407.12,19814,12.0,73828.0,6.53,-25.39,-25.75,0,*70
1485601408.35,19815,12.0,73830.5,6.57,-25.61,-25.87,0,*75
1485601409.58,19816,12.0,73828.0,6.57,-25.61,-25.87,0,*76
1485601410.84,19817,12.0,73826.5,6.57,-25.65,-25.97,0,*72
1485601412.06,19818,12.0,73828.3,6.57,-25.61,-25.87,0,*78
1485601413.29,19819,12.0,73828.5,6.57,-25.65,-25.87,0,*7D
1485601414.57,19820,12.0,73830.3,6.57,-25.45,-25.71,0,*7C
1485601415.8,19821,12.0,73830.3,6.57,-25.19,-25.35,0,*74
1485601417.05,19822,12.0,73828.3,6.57,-25.19,-25.45,0,*70
1485601418.32,19823,12.0,73826.5,6.57,-25.45,-25.71,0,*7F
1485601419.56,19824,12.0,73828.5,6.59,-25.23,-25.55,0,*70
1485601420.78,19825,12.0,73828.5,6.59,-25.23,-25.45,0,*70
1485601422.03,19826,12.0,73828.0,6.59,-25.45,-25.81,0,*7B
1485601423.3,19827,12.0,73830.5,6.59,-25.55,-25.75,0,*70
1485601424.52,19828,12.0,73826.3,6.59,-25.23,-25.45,0,*7D
1485601425.78,19829,12.0,73830.3,6.57,-25.29,-25.49,0,*74
1485601427.01,19830,12.0,73826.0,6.59,-25.23,-25.55,0,*75
1485601428.22,19831,12.0,73830.0,6.59,-25.39,-25.65,0,*7C
1485601429.46,19832,12.0,73826.8,6.59,-25.29,-25.61,0,*7A
1485601430.68,19833,12.0,73826.5,6.59,-25.23,-25.45,0,*77
1485601431.91,19834,12.0,73830.0,6.59,-25.23,-25.45,0,*70
1485601433.16,19835,12.0,73830.3,6.61,-25.09,-25.29,0,*78
1485601434.41,19836,12.0,73828.5,6.61,-25.23,-25.55,0,*78
1485601435.65,19837,12.0,73826.8,6.61,-25.39,-25.61,0,*75
1485601436.88,19838,12.0,73830.5,6.61,-25.09,-25.39,0,*74
1485601438.13,19839,12.0,73824.5,6.61,-25.13,-25.29,0,*7F
1485601439.39,19840,12.0,73828.3,6.61,-25.13,-25.55,0,*7A
1485601440.65,19841,12.0,73826.8,6.61,-25.39,-25.55,0,*73
1485601441.94,19842,12.0,73828.0,6.61,-25.55,-25.75,0,*78
1485601443.19,19843,12.0,73830.3,6.61,-25.61,-25.81,0,*75
1485601444.47,19844,12.0,73828.5,6.61,-25.55,-25.81,0,*75
1485601445.73,19845,12.0,73830.3,6.61,-25.65,-25.81,0,*77
1485601447.0,19846,12.0,73830.5,6.61,-25.45,-25.75,0,*7D
1485601448.26,19847,12.0,73826.5,6.61,-25.45,-25.61,0,*79
1485601449.46,19848,12.0,73830.5,6.63,-25.23,-25.49,0,*7E
1485601450.67,19849,12.0,73826.5,6.63,-25.23,-25.49,0,*7F
1485601451.9,19850,12.0,73828.5,6.63,-25.49,-25.71,0,*70
1485601453.13,19851,12.0,73832.0,6.65,-25.19,-25.39,0,*7E
1485601454.38,19852,12.0,73828.3,6.65,-25.03,-25.19,0,*74
1485601455.63,19853,12.0,73830.5,6.65,-25.03,-25.39,0,*77
1485601456.86,19854,12.0,73830.5,6.65,-25.23,-25.49,0,*75
1485601458.09,19855,12.0,73830.0,6.65,-25.19,-25.49,0,*7D
1485601459.31,19856,12.0,73826.3,6.65,-25.19,-25.39,0,*79
1485601460.54,19857,12.0,73830.5,6.65,-25.09,-25.23,0,*72
1485601461.76,19858,12.0,73828.3,6.65,-25.09,-25.39,0,*76
1485601463.02,19859,12.0,73828.8,6.65,-25.23,-25.55,0,*75
1485601464.24,19860,12.0,73826.3,6.63,-25.23,-25.55,0,*79
1485601465.47,19861,12.0,73828.5,6.65,-25.35,-25.61,0,*7E
1485601466.7,19862,12.0,73828.5,6.65,-25.35,-25.61,0,*7D
1485601467.93,19863,12.0,73830.0,6.65,-25.61,-25.87,0,*75
1485601469.13,19864,12.0,73824.0,6.67,-25.65,-25.87,0,*74
1485601470.37,19865,12.0,73828.8,6.67,-25.49,-25.71,0,*72
1485601471.65,19866,12.0,73830.3,6.65,-25.55,-25.75,0,*7A
1485601472.91,19867,12.0,73826.0,6.65,-25.39,-25.71,0,*75
1485601474.17,19868,12.0,73826.3,6.65,-25.39,-25.75,0,*7E
1485601475.4,19869,12.0,73830.5,6.67,-25.55,-25.87,0,*7A
1485601476.66,19870,12.0,73828.5,6.65,-25.39,-25.71,0,*73
1485601477.88,19871,12.0,73828.0,6.65,-25.19,-25.39,0,*7C
1485601479.14,19872,12.0,73830.3,6.65,-25.49,-25.75,0,*72
1485601480.4,19873,12.0,73830.5,6.65,-25.39,-25.71,0,*70
1485601481.65,19874,12.0,73824.8,6.65,-25.55,-25.87,0,*74
1485601482.88,19875,12.0,73826.3,6.69,-25.49,-25.65,0,*78
1485601484.14,19876,12.0,73830.3,6.67,-25.81,-26.13,0,*73
1485601485.35,19877,12.0,73830.0,6.67,-25.49,-25.65,0,*74
1485601486.61,19878,12.0,73828.3,6.67,-25.45,-25.71,0,*72
1485601487.87,19879,12.0,73826.3,6.67,-25.55,-25.97,0,*7A
1485601489.1,19880,12.0,73830.5,6.67,-25.65,-25.97,0,*7F
1485601490.35,19881,12.0,73826.0,6.69,-25.23,-25.45,0,*7D
1485601491.6,19882,12.0,73826.8,6.69,-25.13,-25.45,0,*7D
1485601492.8,19883,12.0,73830.0,6.67,-25.35,-25.65,0,*74
1485601494.03,19884,12.0,73826.8,6.67,-25.35,-25.71,0,*76
1485601495.26,19885,12.0,73824.5,6.69,-25.23,-25.49,0,*75
1485601496.52,19886,12.0,73828.8,6.67,-25.29,-25.55,0,*7F
1485601497.75,19887,12.0,73830.5,6.67,-25.13,-25.45,0,*76
1485601499.0,19888,12.0,73826.8,6.69,-25.09,-25.29,0,*76
1485601500.22,19889,12.0,73830.3,6.69,-24.97,-25.13,0,*78
1485601501.45,19890,12.0,73828.8,6.71,-24.97,-25.29,0,*70
1485601502.67,19891,12.0,73824.3,6.71,-25.23,-25.45,0,*75
1485601503.89,19892,12.0,73828.5,6.71,-25.23,-25.45,0,*76
1485601505.12,19893,12.0,73830.8,6.71,-25.61,-25.81,0,*79
1485601506.35,19894,12.0,73828.5,6.71,-25.65,-25.81,0,*7A
1485601507.63,19895,12.0,73828.0,6.73,-25.55,-25.71,0,*75
1485601508.89,19896,12.0,73824.5,6.73,-25.71,-25.91,0,*7E
1485601510.11,19897,12.0,73832.0,6.69,-25.65,-25.91,0,*71
1485601511.33,19898,12.0,73828.3,6.69,-25.91,-26.07,0,*79
1485601512.55,19899,12.0,73830.5,6.69,-25.91,-26.23,0,*7E
1485601513.8,19900,12.0,73830.5,6.69,-25.65,-25.81,0,*7F
1485601515.06,19901,12.0,73826.3,6.67,-25.97,-26.29,0,*7C
1485601516.29,19902,12.0,73828.5,6.69,-25.65,-25.91,0,*7C
1485601517.56,19903,12.0,73828.8,6.69,-25.81,-25.97,0,*71
1485601518.78,19904,12.0,73826.5,6.69,-25.91,-26.23,0,*7B
1485601520.02,19905,12.0,73830.5,6.67,-25.49,-25.81,0,*7A
1485601521.22,19906,12.0,73826.3,6.67,-25.65,-25.87,0,*71
1485601522.44,19907,12.0,73830.8,6.69,-25.91,-26.23,0,*78
1485601523.66,19908,12.0,73830.8,6.69,-25.91,-26.23,0,*77
1485601524.89,19909,12.0,73830.3,6.67,-26.17,-26.49,0,*79
1485601526.12,19910,12.0,73830.0,6.67,-26.13,-26.45,0,*79
1485601527.33,19911,12.0,73828.0,6.67,-25.87,-26.03,0,*74
1485601528.56,19912,12.0,73828.3,6.69,-25.91,-26.07,0,*7A
1485601529.78,19913,12.0,73828.5,6.69,-25.65,-25.91,0,*7C
1485601531.03,19914,12.0,73828.5,6.69,-25.61,-25.81,0,*7E
1485601532.29,19915,12.0,73828.5,6.67,-25.97,-26.29,0,*79
1485601533.52,19916,12.0,73826.8,6.67,-25.81,-25.87,0,*7A
1485601534.75,19917,12.0,73828.5,6.67,-25.65,-25.97,0,*70
1485601535.99,19918,12.0,73824.8,6.67,-25.49,-25.81,0,*76
1485601537.19,19919,12.0,73830.8,6.67,-25.65,-25.87,0,*7F
1485601538.43,19920,12.0,73828.3,6.67,-25.49,-25.71,0,*72
1485601539.66,19921,12.0,73830.5,6.67,-25.49,-25.81,0,*7C
1485601540.9,19922,12.0,73826.5,6.67,-25.87,-26.13,0,*75
1485601542.15,19923,12.0,73828.3,6.67,-25.97,-26.17,0,*71
1485601543.38,19924,12.0,73830.5,6.67,-26.13,-26.49,0,*72
1485601544.61,19925,12.0,73830.8,6.67,-26.17,-26.45,0,*7B
1485601545.84,19926,12.0,73828.3,6.67,-26.29,-26.65,0,*77
1485601547.08,19927,12.0,73828.5,6.67,-26.03,-26.33,0,*7D
1485601548.32,19928,12.0,73828.0,6.67,-25.81,-26.03,0,*78
1485601549.53,19929,12.0,73828.0,6.67,-25.65,-26.03,0,*73
1485601550.79,19930,12.0,73828.5,6.67,-25.97,-26.17,0,*73
1485601552.04,19931,12.0,73824.8,6.67,-25.97,-26.17,0,*72
1485601553.32,19932,12.0,73828.5,6.65,-26.17,-26.55,0,*7E
1485601554.54,19933,12.0,73824.5,6.65,-26.23,-26.61,0,*7F
1485601555.76,19934,12.0,73828.3,6.65,-26.23,-26.39,0,*75
1485601556.99,19935,12.0,73826.5,6.65,-26.07,-26.23,0,*79
1485601558.21,19936,12.0,73830.0,6.65,-25.91,-26.07,0,*70
1485601559.44,19937,12.0,73830.5,6.63,-25.75,-26.07,0,*7D
1485601560.69,19938,12.0,73830.5,6.65,-25.91,-26.17,0,*7F
1485601561.92,19939,12.0,73830.8,6.65,-26.03,-26.23,0,*71
1485601563.15,19940,12.0,73830.5,6.67,-26.13,-26.49,0,*70
1485601564.4,19941,12.0,73824.5,6.67,-26.29,-26.55,0,*75
1485601565.64,19942,12.0,73828.5,6.67,-26.03,-26.33,0,*7E
1485601566.88,19943,12.0,73828.8,6.63,-26.07,-26.33,0,*7F
1485601568.13,19944,12.0,73830.8,6.65,-25.55,-25.91,0,*71
1485601569.38,19945,12.0,73830.5,6.65,-25.75,-26.07,0,*7E
1485601570.64,19946,12.0,73828.5,6.65,-25.71,-25.87,0,*72
1485601571.87,19947,12.0,73830.8,6.65,-25.39,-25.61,0,*77
1485601573.13,19948,12.0,73828.3,6.65,-25.49,-25.71,0,*7E
1485601574.39,19949,12.0,73826.0,6.67,-25.29,-25.55,0,*7D
1485601575.65,19950,12.0,73826.5,6.67,-25.55,-25.81,0,*77
1485601576.91,19951,12.0,73828.8,6.67,-25.71,-26.13,0,*78
1485601578.17,19952,12.0,73826.3,6.67,-25.97,-26.17,0,*77
1485601579.4,19953,12.0,73830.5,6.67,-25.87,-26.29,0,*7A
1485601580.63,19954,12.0,73828.0,6.67,-26.29,-26.45,0,*70
1485601581.88,19955,12.0,73828.3,6.69,-26.07,-26.29,0,*79
1485601583.16,19956,12.0,73828.0,6.69,-25.97,-26.29,0,*70
1485601584.42,19957,12.0,73826.5,6.67,-26.13,-26.33,0,*7B
1485601585.65,19958,12.0,73828.3,6.67,-26.13,-26.49,0,*79
1485601586.91,19959,12.0,73826.5,6.67,-25.97,-26.33,0,*7A
1485601588.13,19960,12.0,73830.5,6.65,-26.07,-26.49,0,*75
1485601589.36,19961,12.0,73830.5,6.65,-25.87,-26.07,0,*75
1485601590.62,19962,12.0,73828.0,6.65,-25.71,-25.91,0,*73
1485601591.86,19963,12.0,73826.8,6.65,-25.75,-25.91,0,*76
1485601593.09,19964,12.0,73830.3,6.65,-25.61,-25.91,0,*74
1485601594.32,19965,12.0,73828.0,6.67,-25.49,-25.81,0,*7C
1485601595.58,19966,12.0,73828.5,6.67,-25.29,-25.55,0,*70
1485601596.84,19967,12.0,73830.5,6.67,-25.55,-25.71,0,*7C
1485601598.08,19968,12.0,73830.5,6.67,-25.81,-26.03,0,*7C
1485601599.34,19969,12.0,73830.5,6.67,-25.97,-26.33,0,*79
1485601600.58,19970,12.0,73828.3,6.65,-26.23,-26.55,0,*7F
1485601601.81,19971,12.0,73828.5,6.67,-26.17,-26.49,0,*76
1485601603.07,19972,12.0,73828.8,6.67,-25.55,-25.81,0,*77
1485601604.33,19973,12.0,73828.0,6.69,-25.75,-26.07,0,*77
1485601605.58,19974,12.0,73830.5,6.69,-25.49,-25.75,0,*79
1485601606.84,19975,12.0,73824.0,6.67,-25.45,-25.71,0,*7E
1485601608.09,19976,12.0,73824.8,6.69,-25.29,-25.61,0,*78
1485601609.37,19977,12.0,73824.5,6.69,-25.81,-25.97,0,*72
1485601610.6,19978,12.0,73826.3,6.69,-26.07,-26.39,0,*77
1485601611.82,19979,12.0,73824.8,6.69,-26.23,-26.49,0,*77
1485601613.05,19980,12.0,73830.3,6.67,-26.17,-26.45,0,*74
1485601614.28,19981,12.0,73828.3,6.67,-26.17,-26.45,0,*75
1485601615.53,19982,12.0,73828.0,6.69,-25.97,-26.23,0,*73
1485601616.79,19983,12.0,73828.8,6.67,-25.81,-26.13,0,*78
1485601618.04,19984,12.0,73830.8,6.69,-25.61,-25.81,0,*77
1485601619.27,19985,12.0,73828.0,6.67,-25.45,-25.65,0,*74
1485601620.52,19986,12.0,73828.5,6.67,-25.45,-25.71,0,*72
1485601621.77,19987,12.0,73830.3,6.67,-25.45,-25.81,0,*7C
1485601623.02,19988,11.94,73822.8,6.69,-25.49,-25.81,0,*71
1485601624.25,19989,12.0,73826.0,6.69,-25.65,-26.07,0,*73
1485601625.53,19990,12.0,73828.8,6.69,-25.75,-25.97,0,*70
1485601626.81,19991,12.0,73828.0,6.69,-25.75,-25.97,0,*71
1485601628.03,19992,12.0,73830.3,6.69,-25.91,-26.23,0,*74
1485601629.25,19993,12.0,73830.3,6.69,-25.91,-26.23,0,*75
1485601630.53,19994,12.0,73828.5,6.69,-26.13,-26.29,0,*71
1485601631.76,19995,12.0,73824.5,6.67,-25.87,-26.17,0,*7D
1485601632.99,19996,12.0,73828.3,6.67,-25.87,-26.17,0,*7E
1485601634.22,19997,12.0,73830.8,6.67,-25.65,-25.97,0,*78
1485601635.47,19998,12.0,73828.5,6.69,-25.91,-26.13,0,*7D
1485601636.72,19999,12.0,73830.8,6.69,-25.91,-26.13,0,*7C
1485601637.95,20000,12.0,73830.0,6.71,-25.97,-26.23,0,*73
1485601639.16,20001,12.0,73828.0,6.67,-25.87,-26.03,0,*76
1485601640.44,20002,12.0,73830.0,6.69,-25.75,-25.97,0,*78
1485601641.69,20003,12.0,73828.5,6.69,-25.75,-25.91,0,*7F
1485601642.91,20004,12.0,73826.8,6.69,-25.61,-25.91,0,*7D
1485601644.16,20005,12.0,73830.0,6.69,-25.61,-25.81,0,*7D
1485601645.42,20006,12.0,73826.5,6.69,-25.75,-26.07,0,*76
1485601646.69,20007,12.0,73830.0,6.69,-25.81,-26.13,0,*79
1485601647.95,20008,12.0,73828.0,6.71,-25.81,-25.97,0,*70
1485601649.18,20009,12.0,73828.3,6.71,-25.61,-25.75,0,*73
1485601650.41,20010,12.0,73828.8,6.71,-25.29,-25.61,0,*72
1485601651.63,20011,12.0,73824.5,6.71,-25.23,-25.45,0,*7F
1485601652.84,20012,12.0,73830.0,6.71,-25.23,-25.49,0,*70
1485601654.07,20013,12.0,73828.8,6.73,-25.35,-25.61,0,*7E
1485601655.3,20014,12.0,73826.5,6.71,-25.61,-25.75,0,*7F
1485601656.53,20015,12.0,73828.3,6.71,-25.29,-25.61,0,*77
1485601657.75,20016,12.0,73826.8,6.73,-25.35,-25.61,0,*7B
1485601658.98,20017,12.0,73826.5,6.71,-25.61,-25.81,0,*77
1485601660.21,20018,12.0,73828.0,6.73,-25.87,-26.07,0,*7F
1485601661.43,20019,12.0,73830.8,6.73,-25.61,-25.87,0,*7D
1485601662.69,20020,12.0,73826.5,6.73,-25.71,-25.91,0,*71
1485601663.94,20021,12.0,73826.5,6.73,-25.55,-25.87,0,*71
1485601665.2,20022,12.0,73828.5,6.73,-25.39,-25.71,0,*71
1485601666.42,20023,12.0,73830.0,6.73,-25.61,-25.87,0,*74
1485601667.71,20024,12.0,73830.8,6.73,-25.55,-25.75,0,*79
1485601668.93,20025,12.0,73828.3,6.73,-25.09,-25.39,0,*79
1485601670.19,20026,12.0,73828.3,6.73,-25.09,-25.55,0,*70
1485601671.43,20027,12.0,73824.8,6.73,-25.09,-25.45,0,*70
1485601672.66,20028,12.0,73828.5,6.75,-25.23,-25.55,0,*70
1485601673.87,20029,12.0,73826.0,6.75,-25.39,-25.61,0,*7D
1485601675.09,20030,12.0,73828.0,6.79,-25.35,-25.55,0,*72
1485601676.32,20031,12.0,73828.8,6.75,-25.23,-25.55,0,*78
1485601677.52,20032,12.0,73830.3,6.79,-25.13,-25.35,0,*72
1485601678.74,20033,12.0,73826.8,6.79,-25.35,-25.55,0,*71
1485601679.96,20034,12.0,73830.5,6.79,-25.35,-25.55,0,*76
1485601681.17,20035,12.0,73826.3,6.75,-25.23,-25.61,0,*7B
1485601682.39,20036,12.0,73824.5,6.79,-25.19,-25.55,0,*7A
1485601683.62,20037,12.0,73828.0,6.79,-25.39,-25.71,0,*7F
1485601684.81,20038,12.0,73828.0,6.79,-25.65,-25.87,0,*70
1485601686.03,20039,12.0,73830.3,6.81,-25.35,-25.65,0,*7F
1485601687.28,20040,12.0,73828.3,6.81,-25.61,-25.81,0,*7A
1485601688.53,20041,12.0,73830.5,6.81,-25.49,-25.81,0,*71
1485601689.75,20042,12.0,73828.3,6.81,-25.65,-25.91,0,*7D
1485601691.0,20043,12.0,73828.5,6.81,-25.49,-25.81,0,*73
1485601692.25,20044,12.0,73828.5,6.81,-25.75,-25.91,0,*7A
1485601693.52,20045,12.0,73828.8,6.81,-25.75,-25.97,0,*7D
1485601694.78,20046,12.0,73830.0,6.83,-25.75,-25.97,0,*7C
1485601696.03,20047,12.0,73826.3,6.81,-25.61,-25.81,0,*7D
1485601697.31,20048,12.0,73828.5,6.81,-25.75,-25.97,0,*70
1485601698.58,20049,12.0,73828.0,6.81,-25.75,-25.97,0,*71
1485601699.83,20050,12.0,73828.5,6.81,-25.61,-25.81,0,*7B
1485601701.06,20051,12.0,73830.8,6.81,-25.35,-25.61,0,*75
1485601702.3,20052,12.0,73824.8,6.83,-25.45,-25.81,0,*7D
1485601703.58,20053,12.0,73830.5,6.81,-25.75,-26.13,0,*75
1485601704.8,20054,12.0,73824.3,6.83,-25.61,-25.81,0,*7D
1485601706.02,20055,12.0,73830.5,6.81,-24.93,-25.13,0,*79
1485601707.23,20056,12.0,73828.0,6.81,-24.93,-25.35,0,*7E
1485601708.43,20057,12.0,73828.5,6.85,-24.77,-24.93,0,*7C
1485601709.64,20058,12.0,73826.5,6.85,-24.77,-25.09,0,*71
1485601710.87,20059,12.0,73826.0,6.83,-25.29,-25.49,0,*78
1485601712.1,20060,12.0,73830.3,6.85,-25.19,-25.55,0,*7A